Location: Banksville Park
(38.5557°N, 75.1182°W)
Time: 19:39:33
(UTC+00:00)

Hubble Space Telescope - Visible Passes

Search period start: 30 November 2020 00:00
Search period end: 10 December 2020 00:00
Orbit: 536 x 540 km, 28.5° (Epoch: 30 November)

Date Brightness Start Highest point End Pass type
(mag) Time Alt. Az. Time Alt. Az. Time Alt. Az.
01 Dec 3.3 23:11:08 10° S 23:11:50 10° SSE 23:12:32 10° SSE visible
02 Dec 3.2 22:59:14 10° S 23:00:55 12° SSE 23:02:36 10° SE visible
03 Dec 3.1 22:47:49 10° SSW 22:50:00 14° SSE 22:52:11 10° SE visible
04 Dec 3.6 00:27:30 10° SW 00:28:04 12° SW 00:28:04 12° SW visible
04 Dec 3.1 22:36:36 10° SSW 22:39:07 16° SSE 22:41:37 10° SE visible
05 Dec 3.3 00:16:37 10° SW 00:17:55 16° SSW 00:17:55 16° SSW visible
05 Dec 3.0 22:25:28 10° SSW 22:28:12 17° S 22:30:56 10° SE visible
06 Dec 3.1 00:05:46 10° SW 00:07:47 18° SSW 00:07:47 18° SSW visible
06 Dec 3.0 22:14:25 10° SW 22:17:18 18° S 22:20:11 10° SE visible
06 Dec 2.9 23:54:57 10° SW 23:57:41 19° S 23:57:41 19° S visible
07 Dec 3.0 22:03:26 10° SW 22:06:24 19° S 22:09:24 10° SE visible
07 Dec 2.9 23:44:11 10° SW 23:46:58 17° S 23:47:38 17° S visible
08 Dec 3.1 23:33:29 10° SW 23:36:04 16° S 23:37:40 13° SSE visible
09 Dec 3.3 23:22:51 10° SW 23:25:09 14° SSW 23:27:26 10° SSE visible
